Regional Weather Roundup
Issued by NWS

Home | Current Version | Previous Version | Text Only | Print | Product List | Glossary Off
Versions: 1 2 3 4 5 6 7 8 9 10 11 12 13 14 15 16 17 18 19 20 21 22 23 24 25 26 27 28 29 30 31 32 33 34 35 36 37 38 39 40 41 42 43 44 45 46 47 48 49 50

000
ASUS43 KIND 072259
RWRIN

WEATHER ROUNDUP FOR INDIANA
NATIONAL WEATHER SERVICE INDIANAPOLIS IN
600 PM EST SUN FEB 07 2016

NOTE: "FAIR" INDICATES FEW OR NO CLOUDS BELOW 12,000 FEET WITH NO
SIGNIFICANT WEATHER AND/OR OBSTRUCTIONS TO VISIBILITY.

* - STATION DOES NOT REPORT WEATHER SUCH AS PRECIPITATION OR FOG.

+ - STATION NOT QUALITY CONTROLLED BY THE NATIONAL WEATHER SERVICE.
    USE DATA WITH CAUTION...ESPECIALLY DEWPOINT AND RELATIVE
    HUMIDITY OBSERVATIONS.

INZ001>003-010>013-019-020-080000-
NORTHWEST INDIANA

CITY           SKY/WX    TMP DP  RH WIND       PRES   REMARKS
GARY /AIRPORT/ MOCLDY    45  30  57 SW14G28   29.77R

$$

LMZ046-743>745-080000-
SOUTHERN LAKE MICHIGAN

STATION/POSITION TIME  TEMP    WIND        PRES    WAVE
                       AIR SEA DIR/SP/G            HT
                 (UTC) (F)     (DEG/KT/KT) (MB)    (FT)
BURNS HARBOR     2220   44     230/ 13/ 17 1008.1R
MICHIGAN CITY    2200   42     210/ 16/ 19   N/A

$$

INZ004-005-014>016-021>024-080000-
NORTH CENTRAL INDIANA

CITY           SKY/WX    TMP DP  RH WIND       PRES   REMARKS
ELKHART          N/A     45  32  61 SW15      29.76S
GOSHEN         CLOUDY    44  32  62 SW12      29.76R
SOUTH BEND     PTCLDY    42  32  67 SW13      29.76S

$$

INZ006>009-017-018-025>027-080000-
NORTHEAST INDIANA

CITY           SKY/WX    TMP DP  RH WIND       PRES   REMARKS
ANGOLA *+      MOCLDY    43  32  65 SW8       29.76R
FORT WAYNE     MOCLDY    45  30  55 SW12      29.79S

$$

INZ028-029-035-036-043>045-051>053-080000-
WEST CENTRAL INDIANA

CITY           SKY/WX    TMP DP  RH WIND       PRES   REMARKS
GREENCASTLE +  CLOUDY    48  23  37 SW7       29.82F
LAFAYETTE      PTCLDY    45  32  60 W14G21    29.81R
TERRE HAUTE    CLOUDY    49  31  49 W10G21    29.83S

$$

INZ030>032-037>040-046>048-054>057-064-065-080000-
CENTRAL INDIANA

CITY           SKY/WX    TMP DP  RH WIND       PRES   REMARKS
COLUMBUS       CLEAR     50  28  43 S16       29.85S
INDIANAPOLIS   CLOUDY    50  27  40 SW18      29.81S
-EAGLE CREEK   CLOUDY    50  28  42 SW10G22   29.81S
KOKOMO *+        N/A     46  32  57 W14       29.79S
MT COMFORT *+  MOCLDY    48  28  46 SW13      29.82S
SHELBYVILLE    PTCLDY    50  29  44 SW14      29.83R

$$

INZ033-034-041-042-049-050-058-059-080000-
EAST CENTRAL INDIANA

CITY           SKY/WX    TMP DP  RH WIND       PRES   REMARKS
MUNCIE         MOCLDY    50  29  44 SW12      29.80S

$$

INZ060-061-067>069-081>083-085>088-080000-
SOUTHWEST INDIANA

CITY           SKY/WX    TMP DP  RH WIND       PRES   REMARKS
EVANSVILLE     CLEAR     54  25  32 SW14G24   29.89F
HUNTINGBURG *+ PTCLDY    50  28  43 SW15G21   29.90S

$$

INZ062-063-066-070>080-084-089>092-080000-
SOUTH CENTRAL AND SOUTHEAST INDIANA

CITY           SKY/WX    TMP DP  RH WIND       PRES   REMARKS
BLOOMINGTON    MOCLDY    50  27  40 SW15G23   29.84F
MADISON *+     CLEAR     50  21  32 S10       29.89F
SEYMOUR +      CLEAR     52  30  43 SW13      29.86S

$$




USA.gov is the U.S. government's official web portal to all federal, state and local government web resources and services.